When you browse on this site, cookies collect data to enhance your experience and personalize the content and advertising you see.
Visit our Privacy Policy to learn more. By continuing to use the site, you agree to this use of cookies and data.
  • In France
  • List of Countries
  • For 7 days
  • Water Temperature
  • Weather Map
  • Weather Widgets
  • user-avatar
    Login

    Hourly Weather Bor

    Today, 19 August, Monday

    Time Temperature Precipitation Wind Pressure Humidity
    00:00 +23°C° 0.6 mm 0 mps 721 mmHg 86%
    01:00 +24°C° 0.6 mm 1 mps 720 mmHg 89%
    02:00 +24°C° 0 mm 1 mps 721 mmHg 91%
    03:00 +24°C° 0.4 mm 1 mps 721 mmHg 91%
    04:00 +24°C° 0.4 mm 1 mps 721 mmHg 90%
    05:00 +22°C° 0.4 mm 0 mps 722 mmHg 90%
    06:00 +23°C° 0.2 mm 0 mps 722 mmHg 89%
    07:00 +23°C° 0.2 mm 0 mps 722 mmHg 88%
    08:00 +24°C° 0.2 mm 0 mps 723 mmHg 88%
    09:00 +25°C° 1.1 mm 0 mps 723 mmHg 84%
    10:00 +28°C° 1.1 mm 1 mps 723 mmHg 81%
    11:00 +29°C° 1.1 mm 1 mps 723 mmHg 77%
    12:00 +30°C° 0.5 mm 1 mps 722 mmHg 71%
    13:00 +31°C° 0.5 mm 1 mps 721 mmHg 65%
    14:00 +32°C° 0.5 mm 2 mps 720 mmHg 58%
    15:00 +32°C° 0.2 mm 1 mps 720 mmHg 60%
    16:00 +32°C° 0.2 mm 1 mps 719 mmHg 62%
    17:00 +31°C° 0.2 mm 1 mps 719 mmHg 64%
    18:00 +30°C° 0.1 mm 1 mps 720 mmHg 68%
    19:00 +28°C° 0.1 mm 1 mps 720 mmHg 72%
    20:00 +26°C° 0.1 mm 1 mps 720 mmHg 76%
    21:00 +26°C° 0 mm 1 mps 721 mmHg 79%
    22:00 +26°C° 0 mm 1 mps 721 mmHg 81%
    23:00 +25°C° 0 mm 1 mps 721 mmHg 83%

    Tomorrow, 20 August, Tuesday

    Time Temperature Precipitation Wind Pressure Humidity
    00:00 +25°C° 0 mm 1 mps 721 mmHg 85%
    01:00 +24°C° 0 mm 1 mps 720 mmHg 87%
    02:00 +24°C° 0 mm 1 mps 720 mmHg 89%
    03:00 +24°C° 0.1 mm 1 mps 720 mmHg 90%
    04:00 +24°C° 0.1 mm 1 mps 721 mmHg 91%
    05:00 +21°C° 0.1 mm 0 mps 721 mmHg 93%
    06:00 +23°C° 0.7 mm 0 mps 722 mmHg 90%
    07:00 +24°C° 0.7 mm 0 mps 722 mmHg 88%
    08:00 +25°C° 0.7 mm 0 mps 723 mmHg 85%
    09:00 +26°C° 1.7 mm 0 mps 723 mmHg 80%
    10:00 +30°C° 1.7 mm 1 mps 723 mmHg 75%
    11:00 +31°C° 1.7 mm 1 mps 722 mmHg 69%
    12:00 +32°C° 0.2 mm 1 mps 722 mmHg 63%
    13:00 +33°C° 0.2 mm 1 mps 721 mmHg 57%
    14:00 +34°C° 0.2 mm 1 mps 721 mmHg 50%
    15:00 +33°C° 0.1 mm 1 mps 720 mmHg 55%
    16:00 +32°C° 0.1 mm 1 mps 720 mmHg 60%
    17:00 +30°C° 0.1 mm 0 mps 720 mmHg 65%
    18:00 +30°C° 0 mm 1 mps 720 mmHg 70%
    19:00 +28°C° 0 mm 1 mps 720 mmHg 74%
    20:00 +26°C° 0 mm 1 mps 721 mmHg 79%
    21:00 +26°C° 0 mm 1 mps 721 mmHg 81%
    22:00 +26°C° 0 mm 1 mps 721 mmHg 82%
    23:00 +25°C° 0 mm 1 mps 721 mmHg 84%

    Day after tomorrow, 21 August, Wednesday

    Time Temperature Precipitation Wind Pressure Humidity
    00:00 +25°C° 0 mm 1 mps 721 mmHg 85%
    01:00 +25°C° 0 mm 1 mps 720 mmHg 85%
    02:00 +25°C° 0 mm 1 mps 720 mmHg 86%
    03:00 +24°C° 0 mm 1 mps 720 mmHg 87%
    04:00 +24°C° 0 mm 1 mps 721 mmHg 88%
    05:00 +24°C° 0 mm 1 mps 721 mmHg 89%
    06:00 +24°C° 0.4 mm 1 mps 722 mmHg 89%
    07:00 +25°C° 0.4 mm 1 mps 722 mmHg 89%
    08:00 +25°C° 0.4 mm 1 mps 723 mmHg 89%
    09:00 +26°C° 1.5 mm 1 mps 723 mmHg 87%
    10:00 +27°C° 1.5 mm 2 mps 723 mmHg 86%
    11:00 +28°C° 1.5 mm 2 mps 723 mmHg 84%
    12:00 +27°C° 0.6 mm 2 mps 722 mmHg 86%
    13:00 +27°C° 0.6 mm 1 mps 722 mmHg 89%
    14:00 +26°C° 0.6 mm 1 mps 721 mmHg 91%
    15:00 +25°C° 0 mm 0 mps 721 mmHg 86%
    16:00 +25°C° 0 mm 0 mps 720 mmHg 82%
    17:00 +26°C° 0 mm 0 mps 720 mmHg 78%
    18:00 +25°C° 0 mm 0 mps 721 mmHg 82%
    19:00 +23°C° 0 mm 0 mps 721 mmHg 87%
    20:00 +24°C° 0 mm 1 mps 721 mmHg 92%
    21:00 +24°C° 0 mm 1 mps 722 mmHg 92%
    22:00 +24°C° 0 mm 1 mps 722 mmHg 93%
    23:00 +24°C° 0 mm 1 mps 722 mmHg 93%

    22 August, Thursday

    Time Temperature Precipitation Wind Pressure Humidity
    00:00 +23°C° 0 mm 1 mps 721 mmHg 93%
    01:00 +23°C° 0 mm 1 mps 721 mmHg 94%
    02:00 +23°C° 0 mm 1 mps 721 mmHg 95%
    03:00 +23°C° 0.1 mm 1 mps 721 mmHg 95%
    04:00 +23°C° 0.1 mm 1 mps 721 mmHg 95%
    05:00 +20°C° 0.1 mm 0 mps 721 mmHg 95%
    06:00 +24°C° 0.1 mm 1 mps 722 mmHg 90%
    07:00 +25°C° 0.1 mm 1 mps 723 mmHg 85%
    08:00 +26°C° 0.1 mm 1 mps 724 mmHg 81%
    09:00 +26°C° 0.6 mm 1 mps 723 mmHg 82%
    10:00 +27°C° 0.6 mm 1 mps 723 mmHg 83%
    11:00 +25°C° 0.6 mm 0 mps 723 mmHg 84%
    12:00 +27°C° 0 mm 0 mps 722 mmHg 75%
    13:00 +30°C° 0 mm 1 mps 721 mmHg 65%
    14:00 +32°C° 0 mm 1 mps 721 mmHg 56%
    15:00 +31°C° 0 mm 1 mps 720 mmHg 60%
    16:00 +31°C° 0 mm 1 mps 720 mmHg 64%
    17:00 +30°C° 0 mm 1 mps 720 mmHg 67%
    18:00 +28°C° 0.2 mm 1 mps 720 mmHg 72%
    19:00 +27°C° 0.2 mm 1 mps 721 mmHg 77%
    20:00 +23°C° 0.2 mm 0 mps 721 mmHg 82%
    21:00 +25°C° 0 mm 1 mps 721 mmHg 84%
    22:00 +25°C° 0 mm 1 mps 721 mmHg 86%
    23:00 +24°C° 0 mm 1 mps 722 mmHg 89%

    23 August, Friday

    Time Temperature Precipitation Wind Pressure Humidity
    00:00 +24°C° 0 mm 1 mps 721 mmHg 90%
    01:00 +24°C° 0 mm 1 mps 721 mmHg 91%
    02:00 +24°C° 0 mm 1 mps 721 mmHg 92%
    03:00 +24°C° 0.2 mm 1 mps 721 mmHg 92%
    04:00 +23°C° 0.2 mm 1 mps 721 mmHg 92%
    05:00 +21°C° 0.2 mm 0 mps 721 mmHg 93%
    06:00 +22°C° 0.2 mm 0 mps 722 mmHg 91%
    07:00 +25°C° 0.2 mm 1 mps 723 mmHg 89%
    08:00 +26°C° 0.2 mm 1 mps 723 mmHg 87%
    09:00 +26°C° 2.3 mm 1 mps 723 mmHg 88%
    10:00 +26°C° 2.3 mm 1 mps 723 mmHg 90%
    11:00 +26°C° 2.3 mm 1 mps 723 mmHg 91%
    12:00 +26°C° 0.3 mm 1 mps 723 mmHg 91%
    13:00 +26°C° 0.3 mm 1 mps 722 mmHg 90%
    14:00 +26°C° 0.3 mm 1 mps 721 mmHg 89%
    15:00 +26°C° 0 mm 1 mps 721 mmHg 87%
    16:00 +27°C° 0 mm 1 mps 721 mmHg 84%
    17:00 +27°C° 0 mm 1 mps 721 mmHg 81%
    18:00 +26°C° 0 mm 1 mps 721 mmHg 85%
    19:00 +23°C° 0 mm 0 mps 721 mmHg 88%
    20:00 +22°C° 0 mm 0 mps 721 mmHg 91%
    21:00 +22°C° 0 mm 0 mps 721 mmHg 91%
    22:00 +21°C° 0 mm 0 mps 722 mmHg 92%
    23:00 +21°C° 0 mm 0 mps 722 mmHg 92%

    24 August, Saturday

    Time Temperature Precipitation Wind Pressure Humidity
    00:00 +21°C° 0 mm 0 mps 721 mmHg 92%
    01:00 +21°C° 0 mm 0 mps 721 mmHg 93%
    02:00 +23°C° 0 mm 1 mps 721 mmHg 93%
    03:00 +21°C° 0 mm 0 mps 721 mmHg 92%
    04:00 +21°C° 0 mm 0 mps 721 mmHg 92%
    05:00 +21°C° 0 mm 0 mps 722 mmHg 92%
    06:00 +22°C° 0 mm 0 mps 722 mmHg 88%
    07:00 +23°C° 0 mm 0 mps 723 mmHg 84%
    08:00 +26°C° 0 mm 1 mps 723 mmHg 81%
    09:00 +28°C° 0 mm 1 mps 723 mmHg 72%
    10:00 +30°C° 0 mm 1 mps 723 mmHg 64%
    11:00 +32°C° 0 mm 1 mps 723 mmHg 56%
    12:00 +31°C° 1.4 mm 2 mps 723 mmHg 63%
    13:00 +30°C° 1.4 mm 2 mps 722 mmHg 70%
    14:00 +29°C° 1.4 mm 3 mps 721 mmHg 77%
    15:00 +28°C° 1 mm 2 mps 721 mmHg 80%
    16:00 +28°C° 1 mm 2 mps 721 mmHg 82%
    17:00 +27°C° 1 mm 1 mps 721 mmHg 85%
    18:00 +26°C° 0.4 mm 1 mps 721 mmHg 87%
    19:00 +25°C° 0.4 mm 1 mps 722 mmHg 90%
    20:00 +24°C° 0.4 mm 1 mps 722 mmHg 93%
    21:00 +24°C° 0 mm 1 mps 722 mmHg 94%
    22:00 +23°C° 0 mm 1 mps 722 mmHg 95%
    23:00 +21°C° 0 mm 0 mps 722 mmHg 96%
    Show more